Regional Weather Roundup
Issued by NWS Little Rock, AR

Home | Current Version | Previous Version | Text Only | Print | Product List | Glossary Off
Versions: 1 2 3 4 5 6 7 8 9 10 11 12 13 14 15 16 17 18 19 20 21 22 23 24 25 26 27 28 29 30 31 32 33 34 35 36 37 38 39 40 41 42 43 44 45 46 47 48 49 50

409
ASUS44 KLZK 260105
RWRLZK

WEATHER ROUNDUP FOR ARKANSAS
NATIONAL WEATHER SERVICE LITTLE ROCK AR
800 PM CDT SUN JUN 25 2017

NOTE: "FAIR" INDICATES FEW OR NO CLOUDS BELOW 12,000 FEET WITH NO
SIGNIFICANT WEATHER AND/OR OBSTRUCTIONS TO VISIBILITY.

ARZ001-003-010-029-260200-
NORTHWEST ARKANSAS

CITY           SKY/WX    TMP DP  RH WIND       PRES   REMARKS
FAYETTEVILLE   CLEAR     77  57  50 CALM      30.21S
FORT SMITH     CLEAR     82  62  50 E5        30.15F
HARRISON       CLEAR     75  57  53 CALM      30.22S
BENTONVILLE    CLEAR     77  55  47 NE6       30.23S
ROGERS         PTCLDY    75  59  57 NE8       30.23R
SILOAM SPGS    CLEAR    N/A N/A N/A MISG        N/A
HIGHFILL       PTCLDY    79  58  48 N10       30.22R
SPRINGDALE     PTCLDY    77  55  47 E3        30.23S
$$

ARZ004-005-016-260200-
NORTH CENTRAL ARKANSAS

CITY           SKY/WX    TMP DP  RH WIND       PRES   REMARKS
BATESVILLE     CLEAR     79  57  47 S3        30.18S
FLIPPIN        PTCLDY   N/A N/A N/A W3        30.17S
MTN HOME       CLEAR     72  57  59 CALM      30.19S
$$

ARZ040-041-260200-
WEST CENTRAL ARKANSAS

CITY           SKY/WX    TMP DP  RH WIND       PRES   REMARKS
MENA           CLEAR     81  57  44 CALM      30.18S
MOUNT IDA      CLEAR     76  61  59 CALM      30.16
$$

ARZ009-017-025-026-028-260200-
NORTHEAST ARKANSAS

CITY           SKY/WX    TMP DP  RH WIND       PRES   REMARKS
JONESBORO      CLEAR     81  60  48 CALM      30.16F
WALNUT RIDGE   CLEAR     79  57  47 S7        30.16S
BLYTHEVILLE    CLEAR     79  59  50 CALM      30.17S
$$

ARZ022-023-033-042-044-260200-
CENTRAL ARKANSAS

CITY           SKY/WX    TMP DP  RH WIND       PRES   REMARKS
LITTLE ROCK    PTCLDY    78  56  46 E7        30.17F
N LITTLE ROCK    N/A     79  60  50 E3        30.17F
JACKSONVILLE   PTCLDY    79  67  66 CALM      30.17F
CONWAY           N/A     81  59  47 CALM      30.15F
SEARCY         CLEAR     77  65  66 CALM      30.19
HOT SPRINGS    CLEAR     82  61  48 SE6       30.17S
RUSSELLVILLE   CLEAR     76  63  64 CALM      30.16F
CLINTON        FAIR      77  63  61 CALM      30.18S
$$

ARZ036-260200-
EAST ARKANSAS

CITY           SKY/WX    TMP DP  RH WIND       PRES   REMARKS
WEST MEMPHIS   CLEAR     74  64  71 N3        30.17R
$$

ARZ050-053-066-070-073-260200-
SOUTHWEST ARKANSAS

CITY           SKY/WX    TMP DP  RH WIND       PRES   REMARKS
CAMDEN         CLEAR     79  64  61 CALM      30.16S
TEXARKANA      CLEAR     79  61  53 NE7       30.15S
EL DORADO      CLEAR     78  64  61 NE3       30.16S
DE QUEEN       CLEAR     81  61  50 SE5       30.13S
$$

ARZ056-057-069-260200-
SOUTHEAST ARKANSAS

CITY           SKY/WX    TMP DP  RH WIND       PRES   REMARKS
PINE BLUFF     CLEAR     77  62  59 E5        30.17S
STUTTGART      CLEAR    N/A N/A N/A NE6       30.18S
MONTICELLO     CLEAR     78  68  71 CALM      30.17R

$$






USA.gov is the U.S. government's official web portal to all federal, state and local government web resources and services.